This demonstration page uses our WeatherBlox Daily Observations layout. Learn more.

38.89511, -77.03637

Hourly Observations for April 17, 2015

Temp ( °F °C ) Dew Point ( °F °C ) Humidity (%) Winds ( mph kmh ) Pressure ( in mb ) Visibility ( mi km ) Precip ( " mm )
12:52 am 00:52 Cloudy with Light Rain 60 15.6 53 11.7 78 78 S 5 7 30.24 1024 10 16.0934 0.03 0.762
1:08 am 01:08 Cloudy with Light Rain 61 16 54 12 77 77 Calm 30.24 1024 10 16.0934 0 0
1:52 am 01:52 Cloudy with Light Rain 59 15 54 12.2 83 83 SSW 5 7 30.21 1023 9 14.48406 0.02 0.508
2:52 am 02:52 Cloudy 59 15 54 12.2 83 83 S 7 11 30.17 1022 10 16.0934 0 0.0254
3:52 am 03:52 Cloudy 59 15 54 12.2 83 83 S 7 11 30.16 1021 10 16.0934 0 0
4:40 am 04:40 Cloudy 59 15 54 12 82 82 SSW 8 13 30.15 1021 10 16.0934 0 0
4:52 am 04:52 Cloudy 59 15 54 12.2 83 83 S 9 15 30.15 1021 10 16.0934 0 0
5:52 am 05:52 Cloudy 59 15 55 12.8 87 87 S 6 9 30.14 1021 10 16.0934 0 0
6:00 am 06:00 Cloudy 59 15 55 13 88 88 S 8 13 30.15 1021 10 16.0934 0 0
6:07 am 06:07 Cloudy 59 15 55 13 88 88 S 9 15 30.15 1021 10 16.0934 0 0
6:52 am 06:52 Cloudy 59 15 54 12.2 83 83 SSW 6 9 30.13 1020 10 16.0934 0 0
6:55 am 06:55 Mostly Cloudy 59 15 54 12 82 82 SSW 8 13 30.12 1020 10 16.0934 0 0
7:52 am 07:52 Mostly Cloudy 61 16.1 56 13.3 84 84 S 8 13 30.13 1020 10 16.0934 0 0
8:52 am 08:52 Mostly Cloudy 63 17.2 57 13.9 81 81 S 9 15 30.11 1020 10 16.0934 0 0
9:52 am 09:52 Partly Cloudy 67 19.4 57 13.9 71 71 SW 12 19 30.09 1019 10 16.0934 0 0
10:52 am 10:52 Partly Cloudy 70 21.1 58 14.4 66 66 SSW 7 11 30.08 1019 10 16.0934 0 0
11:52 am 11:52 Partly Cloudy 71 21.7 60 15.6 68 68 S 9 15 30.06 1018 10 16.0934 0 0
12:52 pm 12:52 Partly Cloudy 73 22.8 61 16.1 66 66 S 10 17 30.03 1017 10 16.0934 0 0
1:52 pm 13:52 Mostly Cloudy 74 23.3 60 15.6 62 62 S 7 11 30.01 1016 10 16.0934 0 0
2:52 pm 14:52 Mostly Cloudy 78 25.6 62 16.7 58 58 SSE 7 11 29.99 1016 10 16.0934 0 0
3:52 pm 15:52 Mostly Cloudy 78 25.6 60 15.6 54 54 SE 3 6 29.96 1015 10 16.0934 0 0
4:52 pm 16:52 Mostly Cloudy 76 24.4 59 15 56 56 Calm 29.94 1014 10 16.0934 0 0
5:52 pm 17:52 Mostly Cloudy 77 25 57 13.9 50 50 SSW 8 13 29.93 1014 10 16.0934 0 0
6:52 pm 18:52 Mostly Cloudy 74 23.3 60 15.6 62 62 SSW 7 11 29.93 1014 10 16.0934 0 0
7:19 pm 19:19 Mostly Cloudy with Light Rain 73 23 61 16 65 65 SW 3 6 29.94 1014 8 12.87472 0.01 0.254
7:52 pm 19:52 Mostly Cloudy 73 22.8 61 16.1 66 66 SW 5 7 29.94 1014 10 16.0934 0.01 0.254
8:41 pm 20:41 Cloudy 75 24 61 16 61 61 Calm 29.97 1015 10 16.0934 0 0
8:52 pm 20:52 Mostly Cloudy 69 20.6 61 16.1 76 76 Calm 29.96 1015 10 16.0934 0 0
9:52 pm 21:52 Mostly Cloudy 70 21.1 61 16.1 73 73 Calm 29.98 1015 10 16.0934 0 0
10:52 pm 22:52 Mostly Cloudy 70 21.1 61 16.1 73 73 Calm 29.98 1015 10 16.0934 0 0
11:52 pm 23:52 Mostly Cloudy 68 20 61 16.1 78 78 Calm 29.99 1016 10 16.0934 0 0

Powered by AerisWeather